Location: Bottenau
(48.5138°N, 8.0462°E)
Time: 04:14:42
(UTC+00:00)

Cosmos 2279 Rocket - Pass Details

Date: 18 April 2021
Orbit: 964 x 978 km, 82.9° (Epoch: 09 May)

Event Time Altitude Azimuth Distance (km) Brightness Sun altitude
Exits shadow 19:33:55 - 169° (SSE) 3,529 6.5 -11.4°
Reaches altitude 10° 19:36:11 10° 164° (SSE) 2,696 5.9 -11.7°
Maximum altitude 19:42:05 50° 91° (E) 1,210 4.2 -12.5°
Drops below altitude 10° 19:48:03 10° 18° (NNE) 2,715 6.5 -13.3°
Sets 19:50:37 0° 13° (NNE) 3,667 7.3 -13.7°
